Regional Weather Roundup
Issued by NWS

Home | Current Version | Previous Version | Text Only | Print | Product List | Glossary On
Versions: 1 2 3 4 5 6 7 8 9 10 11 12 13 14 15 16 17 18 19 20 21 22 23 24 25 26 27
000
ASUS45 KREV 260810
RWRNV
NEVADA REGIONAL WEATHER ROUNDUP
NATIONAL WEATHER SERVICE RENO NV
100 AM PDT MON SEP 26 2016

NOTE: "FAIR" INDICATES FEW OR NO CLOUDS BELOW 12,000 FEET WITH NO
SIGNIFICANT WEATHER AND/OR OBSTRUCTIONS TO VISIBILITY.

NVZ001-003-004-260900-
WESTERN NEVADA

CITY           SKY/WX    TMP DP  RH WIND       PRES   REMARKS
RENO           CLEAR     58  30  34 W6        30.33F
CARSON CITY    FAIR      52  19  28 CALM      30.37F
MINDEN         FAIR      39  18  41 CALM      30.37F
PYRAMID LAKE     N/A     66 N/A N/A SW1         N/A
FALLON         CLEAR     50  25  37 S5        30.31S
LOVELOCK       CLEAR     50  24  36 CALM      30.31S
$$

NVZ002-CAZ072-073-260900-
NORTHERN AND CENTRAL SIERRA

CITY           SKY/WX    TMP DP  RH WIND       PRES   REMARKS
S. LAKE TAHOE  CLEAR     42  23  46 S3        30.42S
TRUCKEE        CLEAR     39  21  48 CALM      30.41S
SQUAW VLY 8000 NOT AVBL
MAMMOTH LAKES  FAIR      44  17  34 CALM      30.48S
BRIDGEPORT       N/A     37  17  44 CALM      30.46F
$$

NVZ030-031-036-260900-
NORTHERN NEVADA

CITY           SKY/WX    TMP DP  RH WIND       PRES   REMARKS
ELKO           CLEAR     50  38  63 CALM      30.42S
WINNEMUCCA     CLEAR     54  32  43 S6        30.36S
WENDOVER       CLEAR     52  41  66 CALM      30.42S
$$

NVZ035-037-260900-
CENTRAL NEVADA

CITY           SKY/WX    TMP DP  RH WIND       PRES   REMARKS
ELY            CLEAR     39  28  64 S8        30.48F
EUREKA           N/A     44  35  70 S5        30.45F
$$

NVZ013-014-260900-
SOUTH CENTRAL NEVADA

CITY           SKY/WX    TMP DP  RH WIND       PRES   REMARKS
TONOPAH        CLEAR     55  31  39 N7        30.40S
$$

NVZ017-020-022-260900-
SOUTHERN NEVADA

CITY           SKY/WX    TMP DP  RH WIND       PRES   REMARKS
LAS VEGAS      CLEAR     77  24  14 CALM      30.16S
N. LAS VEGAS   CLEAR     73  28  18 W5        30.16S
NELLIS AFB     CLEAR     73  28  19 NE10      30.14S
HENDERSON      CLEAR     70  32  24 N7        30.20S
MERCURY        CLEAR     67  25  20 N3        30.22S
$$




USA.gov is the U.S. government's official web portal to all federal, state and local government web resources and services.